Weather History for San Jose, Costa Rica

Change the Weather History Date:

Thursday, April 25, 2013

  Actual Average Record
Temperature  
Mean Temperature 78 °F -  
Max Temperature 87 °F 81 °F 87 °F (2001)
Min Temperature 68 °F 65 °F 62 °F (2004)
Cooling Degree Days 12    
Growing Degree Days 28 (Base 50)    
Moisture  
Dew Point 58 °F    
Average Humidity 54    
Maximum Humidity 73    
Minimum Humidity 30    
Precipitation  
Precipitation 0.00 in 0.31 in - ()
Sea Level Pressure  
Sea Level Pressure 29.99 in    
Wind  
Wind Speed 10 mph ()    
Max Wind Speed 29 mph    
Max Gust Speed 29 mph    
Visibility 8.1 miles    
Events      
Averages and records for this station are not official NWS values.
T = Trace of Precipitation, MM = Missing Value Source: Averaged Metar Reports

Daily Weather History Graph

Daily Weather History Graph

Search for Another Location

Airport:

Trip Planner

Search our weather history database for the weather conditions in past years. The results will help you decide how hot, cold, wet, or windy it might be!

Date:

Astronomy

Apr. 25, 2013 Rise Set
Actual Time 5:21 AM CST 5:47 PM CST
Civil Twilight 5:00 AM CST 6:09 PM CST
Nautical Twilight 4:34 AM CST 6:34 PM CST
Astronomical Twilight 4:09 AM CST 7:00 PM CST
Moon 5:54 PM CST (4/25) 5:03 AM CST (4/25)
Length of Visible Light 13h 09m
Length of Day
12h 26m
Full, 100% of the Moon is Illuminated
Apr 25
Full
Apr 25
Full
May 2
Last Quarter
May 9
New
May 17
First Quarter

Hourly Weather History & Observations

Time (CST) Temp. Heat Index Dew Point Humidity Pressure Visibility Wind Dir Wind Speed Gust Speed Precip Events Conditions
12:00 AM 71 °F - 61 °F 62% 29.85 in 12 mi East 6.9 mph - -  
12:00 AM 71.6 °F - 59.0 °F 64% 30.03 in - East 6.9 mph - N/A   Clear
1:00 AM 69.8 °F - 60.8 °F 73% 30.01 in - East 6.9 mph - N/A   Clear
2:00 AM 71.6 °F - 59.0 °F 64% 30.00 in - ESE 11.5 mph 23.0 mph N/A   Clear
3:00 AM 71 °F - 60 °F 60% 29.80 in 12 mi ESE 11.5 mph - -  
3:00 AM 69.8 °F - 60.8 °F 73% 30.00 in - ESE 11.5 mph - N/A   Clear
4:00 AM 69.8 °F - 59.0 °F 68% 30.00 in - East 9.2 mph - N/A   Clear
5:00 AM 69.8 °F - 59.0 °F 68% 30.01 in - East 8.1 mph - N/A   Clear
6:00 AM 70 °F - 57 °F 53%  in 12 mi East 11.5 mph - -  
6:00 AM 69.8 °F - 57.2 °F 64% 30.03 in 6.2 mi East 11.5 mph - N/A   Partly Cloudy
7:00 AM 71.6 °F - 57.2 °F 60% 30.05 in 6.2 mi ESE 12.7 mph 24.2 mph N/A   Partly Cloudy
8:00 AM 77.0 °F - 55.4 °F 47% 30.06 in - East 12.7 mph 24.2 mph N/A   Clear
9:00 AM 79 °F - 54 °F 31% 29.89 in 12 mi East 28.8 mph - -  
9:00 AM 78.8 °F - 53.6 °F 42% 30.06 in - East 17.3 mph 28.8 mph N/A   Clear
10:00 AM 80.6 °F 80.8 °F 57.2 °F 45% 30.06 in 6.2 mi East 15.0 mph 27.6 mph N/A   Partly Cloudy
11:00 AM 82.4 °F 82.0 °F 57.2 °F 42% 30.05 in 6.2 mi ENE 13.8 mph 25.3 mph N/A   Scattered Clouds
12:00 PM 83 °F - 56 °F 30% 29.85 in 12 mi ENE 23.0 mph - -   Scattered Clouds
12:00 PM 84.2 °F 83.5 °F 57.2 °F 40% 30.04 in 6.2 mi ENE 11.5 mph 23.0 mph N/A   Scattered Clouds
1:00 PM 84.2 °F 83.0 °F 55.4 °F 37% 30.00 in 6.2 mi East 10.4 mph - N/A   Scattered Clouds
2:00 PM 86.0 °F 84.9 °F 57.2 °F 37% 29.97 in 6.2 mi ENE 15.0 mph 28.8 mph N/A   Scattered Clouds
3:00 PM 82 °F - 57 °F 31% 29.80 in 12 mi ENE 16.1 mph - -   Partly Cloudy
3:00 PM 82.4 °F 82.0 °F 57.2 °F 42% 29.97 in 6.2 mi ENE 16.1 mph - N/A   Scattered Clouds
4:00 PM 80.6 °F 80.8 °F 57.2 °F 45% 29.99 in 6.2 mi ENE 15.0 mph - N/A   Scattered Clouds
5:00 PM 77.0 °F - 59.0 °F 54% 30.00 in 6.2 mi East 9.2 mph - N/A   Scattered Clouds
6:00 PM 75 °F - 58 °F 46% 29.83 in 12 mi East 11.5 mph - -   Partly Cloudy
6:00 PM 75.2 °F - 59.0 °F 57% 30.01 in 6.2 mi East 11.5 mph - N/A   Scattered Clouds
7:00 PM 73.4 °F - 59.0 °F 61% 30.05 in 6.2 mi East 10.4 mph - N/A   Partly Cloudy
8:00 PM 71.6 °F - 60.8 °F 69% 30.06 in 6.2 mi East 9.2 mph - N/A   Partly Cloudy
9:00 PM 72 °F - 59 °F 55% 29.87 in 12 mi East 13.8 mph - -   Scattered Clouds
9:00 PM 71.6 °F - 59.0 °F 64% 30.08 in 6.2 mi East 13.8 mph - N/A   Partly Cloudy
10:00 PM 71.6 °F - 60.8 °F 69% 30.09 in 6.2 mi ESE 9.2 mph - N/A   Partly Cloudy
11:00 PM 71.6 °F - 59.0 °F 64% 30.07 in 6.2 mi ESE 13.8 mph - N/A   Partly Cloudy